Location: Arrodets-la-Barthe
(43.0306°N, 0.2829°E)
Time: 19:49:28
(UTC+00:00)

Cosmos 2333 - Pass Details

Date: 24 October 2021
Orbit: 829 x 866 km, 70.9° (Epoch: 02 December)

Event Time Altitude Azimuth Distance (km) Brightness Sun altitude
Rises 19:30:04 0° 209° (SSW) 3,367 7.6 -27.7°
Reaches altitude 10° 19:32:29 10° 212° (SSW) 2,441 6.8 -28.1°
Maximum altitude 19:38:05 72° 296° (WNW) 887 4.3 -29.1°
Enters shadow 19:38:57 61° 350° (N) 956 4.4 -29.3°
